SAS936 KSFO-EKCH

Flight info

Callsign SAS936
Flight time N/A
Altitude 37000
Route SNTNA2 DEDHD DCT LKV DCT MLP J540 YQL Q896 MEETO Q959 YVC DCT 60N096W/N0496F390 64N085W 67N070W/M085F390 DCT CANEL DCT 68N050W 68N040W 67N030W 66N020W/M085F410 64N010W DCT VALDI/N0494F410 DCT RIVEX DCT TNO
Aircraft A359/H-SDE2E3GHIJ3J4J5LM1ORWXY/LB1D1

Departure

Time 2026-05-03 22:37
Airport San Francisco International Airport (KSFO)

Arrival

Time N/A
Airport Copenhagen Kastrup Airport (EKCH)
Time Latitude Longitude Altitude Speed Heading
2026-05-03 21:25 37.61270 -122.39026 21 ft 0 kts 118°
2026-05-03 22:17 37.61273 -122.39033 21 ft 4 kts 118°
2026-05-03 22:18 37.61287 -122.39062 25 ft 4 kts 126°
2026-05-03 22:18 37.61303 -122.39087 23 ft 4 kts 140°
2026-05-03 22:18 37.61323 -122.39103 22 ft 4 kts 170°
2026-05-03 22:18 37.61341 -122.39103 23 ft 2 kts 208°
2026-05-03 22:19 37.61322 -122.39117 24 ft 4 kts 209°
2026-05-03 22:19 37.61316 -122.39121 24 ft 0 kts 206°
2026-05-03 22:23 37.61253 -122.39161 23 ft 16 kts 208°
2026-05-03 22:23 37.61158 -122.39187 24 ft 13 kts 167°
2026-05-03 22:23 37.61086 -122.39117 29 ft 13 kts 131°
2026-05-03 22:24 37.61031 -122.39026 25 ft 13 kts 123°
2026-05-03 22:24 37.61010 -122.38911 27 ft 14 kts 95°
2026-05-03 22:24 37.60975 -122.38789 23 ft 16 kts 113°
2026-05-03 22:24 37.60928 -122.38663 25 ft 16 kts 117°
2026-05-03 22:25 37.60882 -122.38537 24 ft 16 kts 102°
2026-05-03 22:25 37.60883 -122.38405 27 ft 14 kts 69°
2026-05-03 22:25 37.60885 -122.38286 29 ft 16 kts 103°
2026-05-03 22:25 37.60820 -122.38062 28 ft 32 kts 116°
2026-05-03 22:26 37.60757 -122.37862 29 ft 15 kts 77°
2026-05-03 22:26 37.60856 -122.37765 28 ft 26 kts 29°
2026-05-03 22:26 37.61021 -122.37653 29 ft 27 kts 27°
2026-05-03 22:26 37.61191 -122.37541 27 ft 28 kts 28°
2026-05-03 22:27 37.61361 -122.37428 28 ft 27 kts 27°
2026-05-03 22:27 37.61521 -122.37303 29 ft 27 kts 49°
2026-05-03 22:27 37.61542 -122.37087 28 ft 26 kts 116°
2026-05-03 22:27 37.61447 -122.36894 27 ft 26 kts 127°
2026-05-03 22:28 37.61341 -122.36722 28 ft 19 kts 119°
2026-05-03 22:28 37.61278 -122.36571 23 ft 20 kts 118°
2026-05-03 22:28 37.61227 -122.36452 24 ft 12 kts 118°
2026-05-03 22:28 37.61188 -122.36359 25 ft 12 kts 118°
2026-05-03 22:29 37.61150 -122.36266 27 ft 13 kts 117°
2026-05-03 22:29 37.61108 -122.36161 29 ft 8 kts 109°
2026-05-03 22:29 37.61108 -122.36159 29 ft 0 kts 107°
2026-05-03 22:30 37.61120 -122.36100 27 ft 1 kts 43°
2026-05-03 22:31 37.61157 -122.36070 25 ft 0 kts 29°
2026-05-03 22:34 37.61227 -122.36025 22 ft 0 kts
2026-05-03 22:34 37.61248 -122.36038 22 ft 10 kts 322°
2026-05-03 22:34 37.61271 -122.36083 21 ft 0 kts 297°
2026-05-03 22:36 37.61285 -122.36117 22 ft 24 kts 298°
2026-05-03 22:36 37.61473 -122.36572 26 ft 91 kts 297°
2026-05-03 22:36 37.61867 -122.37495 29 ft 147 kts 298°
2026-05-03 22:36 37.62434 -122.38761 337 ft 167 kts 296°
2026-05-03 22:37 37.63017 -122.39948 1111 ft 164 kts 299°
2026-05-03 22:37 37.63663 -122.41298 1420 ft 188 kts 297°
2026-05-03 22:37 37.64312 -122.42789 2103 ft 199 kts 295°
2026-05-03 22:37 37.64969 -122.44410 2595 ft 214 kts 295°
2026-05-03 22:38 37.65695 -122.46115 3082 ft 226 kts 297°
2026-05-03 22:38 37.66464 -122.47847 3526 ft 236 kts 296°
2026-05-03 22:38 37.67251 -122.49692 3911 ft 250 kts 295°
2026-05-03 22:38 37.68317 -122.51505 4255 ft 267 kts 318°
2026-05-03 22:39 37.70016 -122.52463 4821 ft 274 kts 351°
2026-05-03 22:39 37.71935 -122.52622 5425 ft 279 kts 358°
2026-05-03 22:39 37.73896 -122.52660 6025 ft 284 kts 359°
2026-05-03 22:39 37.75896 -122.52707 6649 ft 289 kts 359°
2026-05-03 22:40 37.77921 -122.52712 7255 ft 294 kts
2026-05-03 22:40 37.79880 -122.52009 7859 ft 295 kts 32°
2026-05-03 22:40 37.81354 -122.50259 8508 ft 291 kts 61°
2026-05-03 22:40 37.82272 -122.47985 9207 ft 291 kts 70°
2026-05-03 22:41 37.83084 -122.45628 9898 ft 295 kts 69°
2026-05-03 22:41 37.84237 -122.43421 10330 ft 313 kts 47°
2026-05-03 22:41 37.85403 -122.42300 10514 ft 327 kts 32°
2026-05-03 22:41 37.87474 -122.40925 10805 ft 344 kts 28°
2026-05-03 22:42 37.89677 -122.39560 11101 ft 360 kts 28°
2026-05-03 22:42 37.91970 -122.38124 11382 ft 375 kts 28°
2026-05-03 22:42 37.94349 -122.36616 11649 ft 389 kts 28°
2026-05-03 22:42 37.96796 -122.35054 11999 ft 399 kts 28°
2026-05-03 22:43 37.99289 -122.33456 12488 ft 404 kts 28°
2026-05-03 22:43 38.01814 -122.31834 13010 ft 409 kts 28°
2026-05-03 22:43 38.04361 -122.30195 13551 ft 413 kts 28°
2026-05-03 22:43 38.06940 -122.28533 14051 ft 417 kts 28°
2026-05-03 22:44 38.09529 -122.26862 14550 ft 420 kts 28°
2026-05-03 22:44 38.12146 -122.25172 15042 ft 423 kts 28°
2026-05-03 22:44 38.14782 -122.23468 15552 ft 427 kts 28°
2026-05-03 22:44 38.17439 -122.21748 16089 ft 430 kts 28°
2026-05-03 22:45 38.20112 -122.20017 16629 ft 433 kts 28°
2026-05-03 22:45 38.22802 -122.18272 17131 ft 437 kts 28°
2026-05-03 22:45 38.25520 -122.16508 17656 ft 440 kts 28°
2026-05-03 22:45 38.28262 -122.14728 18189 ft 443 kts 28°
2026-05-03 22:46 38.31010 -122.12943 18636 ft 446 kts 28°
2026-05-03 22:46 38.33853 -122.11283 19071 ft 451 kts 22°
2026-05-03 22:46 38.36788 -122.09979 19552 ft 454 kts 19°
2026-05-03 22:46 38.39833 -122.08814 20024 ft 458 kts 17°
2026-05-03 22:47 38.42914 -122.07723 20516 ft 461 kts 16°
2026-05-03 22:47 38.46021 -122.06649 21002 ft 464 kts 16°
2026-05-03 22:47 38.49152 -122.05561 21506 ft 467 kts 16°
2026-05-03 22:47 38.52305 -122.04448 22019 ft 470 kts 16°
2026-05-03 22:48 38.55468 -122.03315 22496 ft 473 kts 17°
2026-05-03 22:48 38.58640 -122.02165 22968 ft 477 kts 17°
2026-05-03 22:48 38.61805 -122.01011 23459 ft 480 kts 17°
2026-05-03 22:48 38.65032 -121.99830 23877 ft 483 kts 17°
2026-05-03 22:49 38.68277 -121.98640 24304 ft 485 kts 17°
2026-05-03 22:49 38.71535 -121.97445 24711 ft 488 kts 17°
2026-05-03 22:49 38.74811 -121.96243 25126 ft 491 kts 17°
2026-05-03 22:49 38.78108 -121.95033 25537 ft 493 kts 17°
2026-05-03 22:50 38.81410 -121.93820 25950 ft 495 kts 17°
2026-05-03 22:50 38.84736 -121.92597 26330 ft 498 kts 16°
2026-05-03 22:50 38.88075 -121.91368 26732 ft 501 kts 16°
2026-05-03 22:50 38.91443 -121.90127 27136 ft 503 kts 16°
2026-05-03 22:51 38.94813 -121.88884 27534 ft 506 kts 16°
2026-05-03 22:51 38.98218 -121.87627 27872 ft 509 kts 16°
2026-05-03 22:51 39.01591 -121.86381 28243 ft 512 kts 16°
2026-05-03 22:51 39.05029 -121.85112 28619 ft 514 kts 16°
2026-05-03 22:52 39.08478 -121.83836 28969 ft 517 kts 16°
2026-05-03 22:52 39.11944 -121.82551 29259 ft 520 kts 16°
2026-05-03 22:52 39.15440 -121.81253 29574 ft 523 kts 16°
2026-05-03 22:52 39.18939 -121.79953 29900 ft 525 kts 16°
2026-05-03 22:53 39.22447 -121.78649 30300 ft 524 kts 16°
2026-05-03 22:53 39.25949 -121.77345 30666 ft 524 kts 16°
2026-05-03 22:53 39.29448 -121.76041 31028 ft 524 kts 16°
2026-05-03 22:53 39.32946 -121.74737 31385 ft 523 kts 16°
2026-05-03 22:54 39.36444 -121.73431 31801 ft 522 kts 16°
2026-05-03 22:54 39.39929 -121.72129 32130 ft 522 kts 16°
2026-05-03 22:54 39.42403 -121.71204 32352 ft 522 kts 16°
2026-05-03 22:54 39.45969 -121.69869 32698 ft 521 kts 16°
2026-05-03 22:55 39.49454 -121.68563 33050 ft 520 kts 16°
2026-05-03 22:55 39.52934 -121.67256 33346 ft 520 kts 16°
2026-05-03 22:55 39.56416 -121.65948 33633 ft 520 kts 17°
2026-05-03 22:55 39.59856 -121.64655 33951 ft 519 kts 17°
2026-05-03 22:56 39.63321 -121.63352 34222 ft 518 kts 17°
2026-05-03 22:56 39.66787 -121.62047 34454 ft 518 kts 16°
2026-05-03 22:56 39.70249 -121.60741 34701 ft 517 kts 16°
2026-05-03 22:56 39.73711 -121.59435 34943 ft 517 kts 16°
2026-05-03 22:57 39.77167 -121.58129 35197 ft 516 kts 16°
2026-05-03 22:57 39.80619 -121.56821 35412 ft 516 kts 16°
2026-05-03 22:57 39.84063 -121.55517 35615 ft 516 kts 16°
2026-05-03 22:57 39.87510 -121.54211 35851 ft 515 kts 16°
2026-05-03 22:58 39.90943 -121.52910 36058 ft 515 kts 16°
2026-05-03 22:58 39.94386 -121.51602 36224 ft 515 kts 16°
2026-05-03 22:58 39.97825 -121.50294 36406 ft 515 kts 16°
2026-05-03 22:58 40.01230 -121.48998 36601 ft 515 kts 16°
2026-05-03 22:59 40.04667 -121.47688 36793 ft 514 kts 16°
2026-05-03 22:59 40.08103 -121.46376 36907 ft 515 kts 16°
2026-05-03 22:59 40.11551 -121.45060 36932 ft 519 kts 16°
2026-05-03 23:00 40.18325 -121.42468 36921 ft 522 kts 16°
2026-05-03 23:00 40.21780 -121.41144 36925 ft 510 kts 16°
2026-05-03 23:00 40.25102 -121.39869 36892 ft 488 kts 16°
2026-05-03 23:01 40.31533 -121.37399 36907 ft 482 kts 16°
2026-05-03 23:01 40.38025 -121.34902 36908 ft 490 kts 16°
2026-05-03 23:02 40.44630 -121.32355 36898 ft 498 kts 16°
2026-05-03 23:02 40.51332 -121.29766 36931 ft 506 kts 16°
2026-05-03 23:03 40.58024 -121.27187 36890 ft 494 kts 19°
2026-05-03 23:03 40.64537 -121.24658 36883 ft 489 kts 19°
2026-05-03 23:04 40.71068 -121.22111 36882 ft 488 kts 19°
2026-05-03 23:04 40.77577 -121.19570 36874 ft 487 kts 19°
2026-05-03 23:05 40.84072 -121.17033 36873 ft 486 kts 19°
2026-05-03 23:05 40.90571 -121.14490 36868 ft 486 kts 19°
2026-05-03 23:06 40.97013 -121.11965 36866 ft 486 kts 19°
2026-05-03 23:06 41.03498 -121.09417 36867 ft 486 kts 19°
2026-05-03 23:07 41.10005 -121.06858 36864 ft 478 kts 19°
2026-05-03 23:07 41.16279 -121.04384 36876 ft 475 kts 19°
2026-05-03 23:08 41.22681 -121.01850 36880 ft 484 kts 19°
2026-05-03 23:08 41.29157 -120.99284 36881 ft 486 kts 19°
2026-05-03 23:09 41.35633 -120.96712 36895 ft 486 kts 18°
2026-05-03 23:09 41.42113 -120.94136 36906 ft 486 kts 18°
2026-05-03 23:10 41.48593 -120.91555 36911 ft 486 kts 18°
2026-05-03 23:10 41.55084 -120.88963 36916 ft 487 kts 18°
2026-05-03 23:11 41.61568 -120.86368 36914 ft 487 kts 18°
2026-05-03 23:11 41.68059 -120.83766 36908 ft 487 kts 18°
2026-05-03 23:12 41.74560 -120.81154 36905 ft 488 kts 18°
2026-05-03 23:12 41.81062 -120.78535 36896 ft 488 kts 18°
2026-05-03 23:13 41.87575 -120.75907 36899 ft 489 kts 18°
2026-05-03 23:13 41.94091 -120.73270 36910 ft 489 kts 18°
2026-05-03 23:14 42.00617 -120.70626 36934 ft 490 kts 18°
2026-05-03 23:14 42.07140 -120.67977 36951 ft 490 kts 18°
2026-05-03 23:15 42.13660 -120.65322 36963 ft 489 kts 18°
2026-05-03 23:15 42.20178 -120.62662 36967 ft 490 kts 18°
2026-05-03 23:16 42.26702 -120.59995 36966 ft 489 kts 18°
2026-05-03 23:16 42.33208 -120.57327 36961 ft 489 kts 18°
2026-05-03 23:17 42.39713 -120.54656 36951 ft 488 kts 18°
2026-05-03 23:17 42.46202 -120.51972 36936 ft 487 kts 19°
2026-05-03 23:18 42.52282 -120.48028 36926 ft 485 kts 32°
2026-05-03 23:18 42.57946 -120.43170 36927 ft 485 kts 33°
2026-05-03 23:19 42.63578 -120.38143 36921 ft 484 kts 34°
2026-05-03 23:19 42.69203 -120.33113 36919 ft 483 kts 33°
2026-05-03 23:20 42.74815 -120.28110 36910 ft 482 kts 33°
2026-05-03 23:20 42.80421 -120.23116 36907 ft 481 kts 33°
2026-05-03 23:21 42.86014 -120.18123 36901 ft 480 kts 33°
2026-05-03 23:21 42.91593 -120.13130 36898 ft 479 kts 33°
2026-05-03 23:22 42.99925 -120.05654 36898 ft 477 kts 33°
2026-05-03 23:22 43.05462 -120.00671 36896 ft 476 kts 33°
2026-05-03 23:23 43.10983 -119.95691 36894 ft 474 kts 33°
2026-05-03 23:23 43.16453 -119.90748 36896 ft 474 kts 34°
2026-05-03 23:24 43.21954 -119.85764 36899 ft 474 kts 34°
2026-05-03 23:24 43.27490 -119.80737 36895 ft 474 kts 34°
2026-05-03 23:25 43.32952 -119.75768 36895 ft 474 kts 34°
2026-05-03 23:25 43.38456 -119.70749 36892 ft 475 kts 34°
2026-05-03 23:26 43.43952 -119.65726 36894 ft 475 kts 34°
2026-05-03 23:26 43.49490 -119.60655 36892 ft 475 kts 34°
2026-05-03 23:27 43.54956 -119.55637 36893 ft 475 kts 34°
2026-05-03 23:27 43.60455 -119.50578 36897 ft 475 kts 34°
2026-05-03 23:28 43.65950 -119.45511 36902 ft 475 kts 34°
2026-05-03 23:28 43.70513 -119.41295 36905 ft 475 kts 34°
2026-05-03 23:29 43.75998 -119.36216 36910 ft 474 kts 34°
2026-05-03 23:29 43.81475 -119.31135 36910 ft 474 kts 34°
2026-05-03 23:30 43.86946 -119.26048 36908 ft 473 kts 34°
2026-05-03 23:30 43.92408 -119.20956 36912 ft 472 kts 34°
2026-05-03 23:31 43.97861 -119.15862 36911 ft 472 kts 34°
2026-05-03 23:31 44.03293 -119.10778 36912 ft 471 kts 34°
2026-05-03 23:32 44.08719 -119.05688 36914 ft 470 kts 34°
2026-05-03 23:32 44.14146 -119.00583 36911 ft 471 kts 35°
2026-05-03 23:33 44.19572 -118.95467 36913 ft 471 kts 35°
2026-05-03 23:33 44.24998 -118.90341 36918 ft 471 kts 35°
2026-05-03 23:34 44.30384 -118.85241 36915 ft 471 kts 35°
2026-05-03 23:34 44.35838 -118.80064 36924 ft 471 kts 35°
2026-05-03 23:35 44.41214 -118.74953 36927 ft 471 kts 35°
2026-05-03 23:35 44.46625 -118.69795 36934 ft 470 kts 35°
2026-05-03 23:36 44.52031 -118.64627 36939 ft 470 kts 35°
2026-05-03 23:36 44.57425 -118.59459 36944 ft 470 kts 35°
2026-05-03 23:37 44.62831 -118.54269 36945 ft 470 kts 35°
2026-05-03 23:37 44.68220 -118.49085 36951 ft 469 kts 35°
2026-05-03 23:38 44.73604 -118.43893 36958 ft 469 kts 35°
2026-05-03 23:38 44.78988 -118.38688 36959 ft 468 kts 35°
2026-05-03 23:39 44.84350 -118.33493 36969 ft 468 kts 35°
2026-05-03 23:39 44.89707 -118.28292 36970 ft 467 kts 35°
2026-05-03 23:40 44.95054 -118.23090 36968 ft 466 kts 35°
2026-05-03 23:40 45.00393 -118.17884 36967 ft 466 kts 35°
2026-05-03 23:41 45.05727 -118.12668 36957 ft 466 kts 35°
2026-05-03 23:41 45.11026 -118.07473 36948 ft 467 kts 35°
2026-05-03 23:42 45.16360 -118.02233 36945 ft 467 kts 35°
2026-05-03 23:42 45.21692 -117.96984 36944 ft 466 kts 35°
2026-05-03 23:43 45.27025 -117.91721 36945 ft 467 kts 35°
2026-05-03 23:43 45.32349 -117.86454 36947 ft 466 kts 35°
2026-05-03 23:44 45.37670 -117.81178 36938 ft 466 kts 35°
2026-05-03 23:44 45.42983 -117.75899 36933 ft 466 kts 35°
2026-05-03 23:45 45.48301 -117.70601 36928 ft 466 kts 35°
2026-05-03 23:45 45.53616 -117.65292 36932 ft 467 kts 35°
2026-05-03 23:46 45.58932 -117.59974 36928 ft 467 kts 35°
2026-05-03 23:46 45.64256 -117.54634 36919 ft 467 kts 35°
2026-05-03 23:47 45.69528 -117.49330 36920 ft 466 kts 35°
2026-05-03 23:47 45.74827 -117.43990 36920 ft 466 kts 35°
2026-05-03 23:48 45.80125 -117.38636 36917 ft 466 kts 35°
2026-05-03 23:48 45.85411 -117.33284 36915 ft 465 kts 35°
2026-05-03 23:49 45.90693 -117.27922 36917 ft 465 kts 35°
2026-05-03 23:49 45.95947 -117.22575 36913 ft 464 kts 35°
2026-05-03 23:50 46.00325 -117.18110 36912 ft 464 kts 35°
2026-05-03 23:50 46.06468 -117.11830 36910 ft 463 kts 35°
2026-05-03 23:51 46.11590 -117.06581 36906 ft 463 kts 35°
2026-05-03 23:51 46.16838 -117.01191 36909 ft 463 kts 35°
2026-05-03 23:52 46.22072 -116.95803 36913 ft 462 kts 35°
2026-05-03 23:52 46.27308 -116.90398 36914 ft 462 kts 35°
2026-05-03 23:53 46.32498 -116.85028 36909 ft 462 kts 35°
2026-05-03 23:53 46.37720 -116.79612 36909 ft 461 kts 35°
2026-05-03 23:54 46.42931 -116.74196 36900 ft 461 kts 35°
2026-05-03 23:54 46.48137 -116.68771 36893 ft 461 kts 35°
2026-05-03 23:55 46.53354 -116.63322 36877 ft 461 kts 35°
2026-05-03 23:55 46.58550 -116.57880 36868 ft 461 kts 35°
2026-05-03 23:56 46.63751 -116.52420 36864 ft 460 kts 35°
2026-05-03 23:56 46.68938 -116.46961 36860 ft 460 kts 35°
2026-05-03 23:57 46.74124 -116.41492 36860 ft 460 kts 35°
2026-05-03 23:57 46.79303 -116.36018 36856 ft 460 kts 35°
2026-05-03 23:58 46.84465 -116.30549 36859 ft 460 kts 35°
2026-05-03 23:58 46.89642 -116.25048 36851 ft 460 kts 35°
2026-05-03 23:59 46.94818 -116.19534 36855 ft 460 kts 35°
2026-05-03 23:59 46.99996 -116.14006 36854 ft 460 kts 35°
2026-05-04 00:00 47.05159 -116.08480 36846 ft 460 kts 35°
2026-05-04 00:00 47.10334 -116.02927 36853 ft 460 kts 34°
2026-05-04 00:01 47.15469 -115.97405 36856 ft 460 kts 34°
2026-05-04 00:01 47.20627 -115.91843 36850 ft 460 kts 34°
2026-05-04 00:02 47.25795 -115.86259 36848 ft 461 kts 34°
2026-05-04 00:02 47.30953 -115.80669 36850 ft 460 kts 34°
2026-05-04 00:03 47.36116 -115.75060 36839 ft 461 kts 34°
2026-05-04 00:03 47.41271 -115.69446 36834 ft 461 kts 34°
2026-05-04 00:04 47.46433 -115.63810 36838 ft 462 kts 34°
2026-05-04 00:04 47.51371 -115.57721 36840 ft 463 kts 40°
2026-05-04 00:05 47.56139 -115.51304 36836 ft 463 kts 40°
2026-05-04 00:05 47.60939 -115.44925 36839 ft 463 kts 39°
2026-05-04 00:06 47.65777 -115.38602 36846 ft 464 kts 39°
2026-05-04 00:06 47.70639 -115.32273 36846 ft 464 kts 39°
2026-05-04 00:07 47.75494 -115.25937 36853 ft 464 kts 39°
2026-05-04 00:07 47.80341 -115.19591 36859 ft 465 kts 39°
2026-05-04 00:08 47.85194 -115.13216 36866 ft 465 kts 39°
2026-05-04 00:08 47.90003 -115.06881 36869 ft 465 kts 39°
2026-05-04 00:09 47.94844 -115.00490 36869 ft 465 kts 39°
2026-05-04 00:09 47.99684 -114.94084 36877 ft 465 kts 39°
2026-05-04 00:10 48.04525 -114.87658 36875 ft 465 kts 39°
2026-05-04 00:10 48.09362 -114.81222 36878 ft 465 kts 38°
2026-05-04 00:11 48.14197 -114.74773 36888 ft 465 kts 39°
2026-05-04 00:11 48.19026 -114.68312 36891 ft 465 kts 39°
2026-05-04 00:12 48.23819 -114.61883 36893 ft 465 kts 39°
2026-05-04 00:12 48.28668 -114.55361 36899 ft 466 kts 39°
2026-05-04 00:13 48.33458 -114.48906 36893 ft 465 kts 39°
2026-05-04 00:13 48.38271 -114.42401 36897 ft 465 kts 39°
2026-05-04 00:14 48.43085 -114.35874 36899 ft 466 kts 39°
2026-05-04 00:14 48.47897 -114.29333 36900 ft 466 kts 38°
2026-05-04 00:15 48.52706 -114.22778 36906 ft 467 kts 39°
2026-05-04 00:15 48.57526 -114.16192 36898 ft 467 kts 39°
2026-05-04 00:16 48.62343 -114.09591 36899 ft 467 kts 39°
2026-05-04 00:16 48.67158 -114.02978 36899 ft 467 kts 39°
2026-05-04 00:17 48.71974 -113.96346 36905 ft 468 kts 38°
2026-05-04 00:17 48.75970 -113.90827 36912 ft 468 kts 39°
2026-05-04 00:18 48.80782 -113.84168 36902 ft 468 kts 39°
2026-05-04 00:18 48.85597 -113.77488 36906 ft 470 kts 39°
2026-05-04 00:19 48.90418 -113.70778 36878 ft 471 kts 39°
2026-05-04 00:19 48.95236 -113.64044 36870 ft 470 kts 39°
2026-05-04 00:20 49.00052 -113.57303 36860 ft 470 kts 39°
2026-05-04 00:20 49.04863 -113.50557 36848 ft 470 kts 39°
2026-05-04 00:21 49.09670 -113.43788 36838 ft 470 kts 39°
2026-05-04 00:21 49.14472 -113.37008 36830 ft 470 kts 39°
2026-05-04 00:22 49.19269 -113.30217 36827 ft 470 kts 39°
2026-05-04 00:22 49.24028 -113.23462 36829 ft 469 kts 39°
2026-05-04 00:23 49.28805 -113.16662 36830 ft 469 kts 39°
2026-05-04 00:23 49.33570 -113.09859 36840 ft 468 kts 39°
2026-05-04 00:24 49.38328 -113.03053 36845 ft 467 kts 39°
2026-05-04 00:24 49.43079 -112.96236 36846 ft 467 kts 38°
2026-05-04 00:25 49.47822 -112.89410 36848 ft 467 kts 38°
2026-05-04 00:25 49.52555 -112.82582 36846 ft 466 kts 38°
2026-05-04 00:26 49.57282 -112.75741 36845 ft 466 kts 38°
2026-05-04 00:26 49.62006 -112.68894 36842 ft 466 kts 38°
2026-05-04 00:27 49.67065 -112.62754 36846 ft 461 kts 31°
2026-05-04 00:27 49.72251 -112.56935 36864 ft 461 kts 31°
2026-05-04 00:28 49.77421 -112.51185 36852 ft 460 kts 31°
2026-05-04 00:28 49.82619 -112.45379 36870 ft 460 kts 31°
2026-05-04 00:29 49.87800 -112.39560 36862 ft 460 kts 31°
2026-05-04 00:29 49.92979 -112.33724 36860 ft 460 kts 30°
2026-05-04 00:30 49.98148 -112.27884 36865 ft 459 kts 30°
2026-05-04 00:30 50.03310 -112.22036 36863 ft 459 kts 30°
2026-05-04 00:31 50.08470 -112.16174 36866 ft 459 kts 30°
2026-05-04 00:31 50.13614 -112.10317 36864 ft 458 kts 30°
2026-05-04 00:32 50.18758 -112.04442 36865 ft 458 kts 30°
2026-05-04 00:32 50.23898 -111.98554 36868 ft 458 kts 30°
2026-05-04 00:33 50.31598 -111.89706 36863 ft 458 kts 30°
2026-05-04 00:34 50.36727 -111.83793 36871 ft 458 kts 30°
2026-05-04 00:34 50.41853 -111.77867 36866 ft 458 kts 30°
2026-05-04 00:35 50.46982 -111.71919 36864 ft 458 kts 30°
2026-05-04 00:35 50.52074 -111.65999 36866 ft 458 kts 30°
2026-05-04 00:36 50.57202 -111.60021 36869 ft 459 kts 29°
2026-05-04 00:36 50.62324 -111.54032 36874 ft 459 kts 29°
2026-05-04 00:37 50.67445 -111.48029 36869 ft 459 kts 29°
2026-05-04 00:37 50.72570 -111.42004 36874 ft 459 kts 29°
2026-05-04 00:38 50.77702 -111.35954 36872 ft 459 kts 29°
2026-05-04 00:38 50.82820 -111.29904 36872 ft 460 kts 29°
2026-05-04 00:39 50.87939 -111.23833 36870 ft 460 kts 29°
2026-05-04 00:39 50.93062 -111.17744 36868 ft 460 kts 29°
2026-05-04 00:40 50.98175 -111.11649 36875 ft 460 kts 29°
2026-05-04 00:40 51.03287 -111.05537 36870 ft 460 kts 29°
2026-05-04 00:41 51.08404 -110.99400 36864 ft 460 kts 29°
2026-05-04 00:41 51.13517 -110.93252 36862 ft 461 kts 29°
2026-05-04 00:42 51.18591 -110.87131 36872 ft 461 kts 28°
2026-05-04 00:42 51.23702 -110.80952 36873 ft 461 kts 28°
2026-05-04 00:43 51.28819 -110.74751 36878 ft 461 kts 28°
2026-05-04 00:43 51.33930 -110.68537 36876 ft 462 kts 28°
2026-05-04 00:44 51.39039 -110.62305 36880 ft 462 kts 28°
2026-05-04 00:44 51.44149 -110.56052 36878 ft 462 kts 28°
2026-05-04 00:45 51.49258 -110.49784 36879 ft 463 kts 28°
2026-05-04 00:45 51.54370 -110.43494 36877 ft 463 kts 28°
2026-05-04 00:46 51.59441 -110.37236 36876 ft 463 kts 28°
2026-05-04 00:46 51.64550 -110.30915 36872 ft 463 kts 28°
2026-05-04 00:47 51.69657 -110.24576 36877 ft 463 kts 28°
2026-05-04 00:47 51.74760 -110.18224 36879 ft 463 kts 28°
2026-05-04 00:48 51.79865 -110.11851 36882 ft 464 kts 28°
2026-05-04 00:48 51.84967 -110.05463 36876 ft 464 kts 29°
2026-05-04 00:49 51.90071 -109.99052 36875 ft 465 kts 28°
2026-05-04 00:49 51.94983 -109.92110 36880 ft 471 kts 34°
2026-05-04 00:50 51.99725 -109.84831 36879 ft 472 kts 34°
2026-05-04 00:50 52.04525 -109.77541 36879 ft 472 kts 34°
2026-05-04 00:51 52.09361 -109.70311 36875 ft 473 kts 33°
2026-05-04 00:51 52.14212 -109.63082 36866 ft 473 kts 33°
2026-05-04 00:52 52.19076 -109.55815 36864 ft 475 kts 34°
2026-05-04 00:52 52.23939 -109.48517 36860 ft 476 kts 34°
2026-05-04 00:53 52.28811 -109.41180 36860 ft 477 kts 34°
2026-05-04 00:53 52.33694 -109.33805 36849 ft 478 kts 34°
2026-05-04 00:54 52.38579 -109.26401 36851 ft 479 kts 34°
2026-05-04 00:54 52.43480 -109.18951 36842 ft 480 kts 35°
2026-05-04 00:55 52.48349 -109.11525 36843 ft 481 kts 35°
2026-05-04 00:55 52.53255 -109.04020 36843 ft 482 kts 35°
2026-05-04 00:56 52.58160 -108.96490 36850 ft 483 kts 36°
2026-05-04 00:56 52.63068 -108.88930 36850 ft 483 kts 36°
2026-05-04 00:57 52.67975 -108.81355 36851 ft 484 kts 36°
2026-05-04 00:57 52.72881 -108.73755 36845 ft 484 kts 36°
2026-05-04 00:58 52.77792 -108.66118 36834 ft 484 kts 36°
2026-05-04 00:58 52.82663 -108.58517 36818 ft 484 kts 36°
2026-05-04 00:59 52.87560 -108.50853 36820 ft 485 kts 37°
2026-05-04 00:59 52.92453 -108.43171 36824 ft 485 kts 37°
2026-05-04 01:00 52.97347 -108.35463 36824 ft 485 kts 37°
2026-05-04 01:00 53.02242 -108.27727 36829 ft 485 kts 37°
2026-05-04 01:01 53.07130 -108.19975 36834 ft 486 kts 37°
2026-05-04 01:01 53.12014 -108.12207 36837 ft 486 kts 37°
2026-05-04 01:02 53.16860 -108.04472 36832 ft 486 kts 38°
2026-05-04 01:02 53.21735 -107.96666 36835 ft 486 kts 38°
2026-05-04 01:03 53.26612 -107.88830 36841 ft 486 kts 38°
2026-05-04 01:03 53.31481 -107.80981 36828 ft 486 kts 38°
2026-05-04 01:04 53.36347 -107.73110 36835 ft 487 kts 38°
2026-05-04 01:04 53.41210 -107.65217 36829 ft 487 kts 38°
2026-05-04 01:05 53.46068 -107.57306 36837 ft 487 kts 39°
2026-05-04 01:05 53.50920 -107.49379 36839 ft 487 kts 39°
2026-05-04 01:06 53.55734 -107.41488 36836 ft 486 kts 39°
2026-05-04 01:06 53.60735 -107.33892 36838 ft 482 kts 33°
2026-05-04 01:07 53.66032 -107.27008 36839 ft 481 kts 32°
2026-05-04 01:07 53.71375 -107.20194 36837 ft 481 kts 32°
2026-05-04 01:08 53.75809 -107.14534 36843 ft 481 kts 32°
2026-05-04 01:08 53.81140 -107.07695 36842 ft 481 kts 32°
2026-05-04 01:09 53.86467 -107.00827 36841 ft 481 kts 32°
2026-05-04 01:09 53.91799 -106.93928 36845 ft 481 kts 33°
2026-05-04 01:10 53.97121 -106.87019 36844 ft 482 kts 33°
2026-05-04 01:10 54.02333 -106.80231 36845 ft 482 kts 33°